FW2897 Weather Reports


Display with metric or nautical units.
time (UTC)temp
F
wind
direction
speed
MPH
gust
MPH
rain 1hr
in
rain 24hr
in
rain mn
in
humidity
%
barometer
mb
20260905131656 73 273 0.0 2.0 0.00 0.00 0.00 75 1011.0
20260905131150 73 297 0.0 1.0 0.00 0.00 0.00 75 1010.9
20260905130701 72 276 0.0 1.0 0.00 0.00 0.00 76 1011.0
20260905130200 72 278 0.0 1.0 0.00 0.00 0.00 76 1011.0
20260905125619 73 278 0.0 2.0 0.00 0.00 0.00 76 1011.2
20260905125116 72 278 0.0 2.0 0.00 0.00 0.00 76 1011.0
20260905124605 72 231 0.0 3.0 0.00 0.00 0.00 76 1011.0
20260905124105 72 253 0.0 3.0 0.00 0.00 0.00 78 1011.1
20260905123603 72 289 0.0 2.0 0.00 0.00 0.00 77 1011.1
20260905123101 72 266 0.0 1.0 0.00 0.00 0.00 77 1011.1
20260905122603 72 265 0.0 1.0 0.00 0.00 0.00 78 1011.1
20260905122051 72 263 0.0 1.0 0.00 0.00 0.00 78 1011.0
20260905121524 72 262 0.0 3.0 0.00 0.00 0.00 78 1011.0
20260905120955 72 268 0.0 2.0 0.00 0.00 0.00 78 1011.0
20260905120719 72 258 0.0 1.0 0.00 0.00 0.00 78 1011.2
20260905115926 72 258 0.0 1.0 0.00 0.00 0.00 78 1011.2
20260905115422 72 258 0.0 1.0 0.00 0.00 0.00 77 1011.2
20260905114921 72 144 0.0 1.0 0.00 0.00 0.00 77 1011.1
20260905114420 72 257 0.0 1.0 0.00 0.00 0.00 78 1011.0
20260905114143 72 311 0.0 3.0 0.00 0.00 0.00 78 1011.0
20260905113416 72 303 0.0 3.0 0.00 0.00 0.00 77 1010.8
20260905112914 72 278 0.0 1.0 0.00 0.00 0.00 78 1010.7
20260905112407 72 313 0.0 1.0 0.00 0.00 0.00 78 1010.7
20260905111841 72 245 0.0 1.0 0.00 0.00 0.00 79 1010.5
20260905111534 72 326 0.0 4.0 0.00 0.00 0.00 78 1010.4
20260905111034 72 290 0.0 4.0 0.00 0.00 0.00 78 1010.4
20260905110306 72 325 0.0 3.0 0.00 0.00 0.00 79 1010.4
20260905105806 72 325 0.0 1.0 0.00 0.00 0.00 80 1010.4
20260905105237 72 327 0.0 3.0 0.00 0.00 0.00 80 1010.1
20260905104734 72 345 0.0 3.0 0.00 0.00 0.00 79 1010.1
20260905104207 72 297 0.0 3.0 0.00 0.00 0.00 80 1010.0
20260905103705 72 303 0.0 4.0 0.00 0.00 0.00 80 1010.1
20260905103608 72 304 0.0 2.0 0.00 0.00 0.00 81 1010.0
20260905103603 72 304 0.0 0.0 0.00 0.00 0.00 81 1009.9
20260905102123 72 314 0.0 0.0 0.00 0.00 0.00 81 1009.9
20260905101625 72 322 0.0 1.0 0.00 0.00 0.00 82 1009.8
20260905101112 72 319 0.0 1.0 0.00 0.00 0.00 82 1009.8
20260905100614 72 286 0.0 0.0 0.00 0.00 0.00 83 1009.8
20260905095523 72 285 0.0 1.0 0.00 0.00 0.00 83 1009.8
20260905094957 72 286 0.0 1.0 0.00 0.00 0.00 82 1009.9
20260905094454 72 284 0.0 1.0 0.00 0.00 0.00 83 1009.9
20260905093928 72 284 0.0 1.0 0.00 0.00 0.00 83 1009.9
20260905093358 72 275 0.0 0.0 0.00 0.00 0.00 84 1009.8
20260905092902 72 262 0.0 0.0 0.00 0.00 0.00 84 1009.8
20260905092334 72 261 0.0 0.0 0.00 0.00 0.00 84 1009.9
20260905091807 72 261 0.0 0.0 0.00 0.00 0.00 84 1009.9
20260905091532 72 262 0.0 0.0 0.00 0.00 0.00 84 1009.8
20260905090744 72 261 0.0 0.0 0.00 0.00 0.00 84 1009.8
20260905090241 72 261 0.0 0.0 0.00 0.00 0.00 83 1009.9
20260905085741 72 260 0.0 0.0 0.00 0.00 0.00 84 1009.9
20260905085246 72 260 0.0 0.0 0.00 0.00 0.00 84 1009.8
20260905084722 72 260 0.0 2.0 0.00 0.00 0.00 84 1009.8
20260905084155 72 260 0.0 2.0 0.00 0.00 0.00 84 1009.8
20260905083919 72 264 0.0 1.0 0.00 0.00 0.00 85 1009.7
20260905083147 72 264 0.0 1.0 0.00 0.00 0.00 85 1009.7
20260905082647 72 284 0.0 1.0 0.00 0.00 0.00 87 1009.8
20260905082144 72 2 0.0 0.0 0.00 0.00 0.00 87 1009.8
20260905081643 72 2 0.0 0.0 0.00 0.00 0.00 87 1009.7
20260905081408 72 1 0.0 0.0 0.00 0.00 0.00 87 1009.8
20260905080641 71 1 0.0 0.0 0.00 0.00 0.00 87 1009.7
20260905080124 71 1 0.0 0.0 0.00 0.00 0.00 87 1009.7
20260905075626 71 1 0.0 0.0 0.00 0.00 0.00 87 1009.8
20260905075112 71 1 0.0 0.0 0.00 0.00 0.00 87 1009.8
20260905074609 71 1 0.0 0.0 0.00 0.00 0.00 87 1009.8
20260905074109 71 1 0.0 0.0 0.00 0.00 0.00 87 1009.8
20260905073608 71 1 0.0 0.0 0.00 0.00 0.00 87 1009.7
20260905073047 71 1 0.0 0.0 0.00 0.00 0.00 87 1009.7
20260905072545 71 1 0.0 0.0 0.00 0.00 0.00 88 1009.7
20260905072254 71 1 0.0 0.0 0.00 0.00 0.00 88 1009.9
20260905071511 71 1 0.0 0.0 0.00 0.00 0.00 88 1009.9
20260905071231 71 1 0.0 1.0 0.00 0.00 0.00 87 1009.9
20260905070732 71 1 0.0 1.0 0.00 0.00 0.00 87 1009.9
20260905070443 71 1 0.0 0.0 0.00 0.00 0.00 87 1009.8
20260905065415 72 2 0.0 0.0 0.00 0.00 0.00 87 1009.7
20260905065137 72 1 0.0 0.0 0.00 0.00 0.00 87 1009.7
20260905064410 72 1 0.0 0.0 0.00 0.00 0.00 87 1009.7
20260905063844 72 1 0.0 0.0 0.00 0.00 0.00 87 1009.8
20260905063542 72 1 0.0 0.0 0.00 0.00 0.00 87 1009.8
20260905062747 72 1 0.0 0.0 0.00 0.00 0.00 87 1010.0
20260905062712 72 1 0.0 0.0 0.00 0.00 0.00 87 1009.9
20260905061657 72 1 0.0 0.0 0.00 0.00 0.00 87 1010.0
20260905061130 72 1 0.0 0.0 0.00 0.00 0.00 86 1010.1
20260905060626 73 1 0.0 0.0 0.00 0.00 0.00 86 1010.3
20260905060122 73 1 0.0 0.0 0.00 0.00 0.00 85 1010.3
20260905055622 73 1 0.0 0.0 0.00 0.00 0.00 85 1010.4
20260905055057 73 1 0.0 0.0 0.00 0.00 0.00 85 1010.3
20260905054529 74 1 0.0 0.0 0.00 0.00 0.00 85 1010.3
20260905054004 74 1 0.0 0.0 0.00 0.00 0.00 84 1010.5
20260905053500 74 2 0.0 0.0 0.00 0.00 0.00 84 1010.4
20260905052959 74 2 0.0 1.0 0.00 0.00 0.00 84 1010.4
20260905052431 74 1 0.0 1.0 0.00 0.00 0.00 84 1010.5
20260905051928 75 1 0.0 1.0 0.00 0.00 0.00 84 1010.7
20260905051359 75 1 0.0 1.0 0.00 0.00 0.00 84 1010.6
20260905050859 75 1 0.0 0.0 0.00 0.00 0.00 84 1010.5
20260905050606 75 2 0.0 2.0 0.00 0.00 0.00 84 1010.5
20260905045829 76 3 0.0 3.0 0.00 0.00 0.00 84 1010.5
20260905045301 76 278 0.0 5.0 0.00 0.00 0.00 84 1010.5
20260905044759 76 240 0.0 1.0 0.00 0.00 0.00 84 1010.6
20260905044233 76 295 0.0 1.0 0.00 0.00 0.00 86 1010.7
20260905044210 76 315 0.0 1.0 0.00 0.00 0.00 86 1010.6
20260905043222 76 285 0.0 0.0 0.00 0.00 0.00 87 1010.6
20260905042653 76 285 0.0 0.0 0.00 0.00 0.00 87 1010.6
20260905042152 76 285 0.0 0.0 0.00 0.00 0.00 87 1010.7
20260905041623 76 285 0.0 0.0 0.00 0.00 0.00 88 1010.7
20260905041352 76 285 0.0 0.0 0.00 0.01 0.00 88 1010.7
20260905040610 76 285 0.0 0.0 0.00 0.02 0.00 87 1010.7
20260905040559 76 285 0.0 0.0 0.00 0.03 0.00 87 1010.8
20260905035812 76 285 0.0 0.0 0.00 0.26 0.08 87 1010.8
20260905035018 76 285 0.0 0.0 0.00 0.37 0.08 87 1010.7
20260905034517 76 285 0.0 0.0 0.00 0.38 0.08 87 1010.7
20260905033950 76 285 0.0 0.0 0.00 0.51 0.08 87 1010.5
20260905033444 76 285 0.0 0.0 0.00 0.58 0.08 87 1010.5
20260905032943 76 285 0.0 0.0 0.00 0.58 0.08 87 1010.5
20260905032706 76 285 0.0 0.0 0.00 0.58 0.08 87 1010.6
20260905032157 76 284 0.0 0.0 0.00 0.58 0.08 87 1010.6
20260905031637 76 285 0.0 0.0 0.00 0.58 0.08 86 1010.6
20260905031129 76 285 0.0 0.0 0.00 0.58 0.08 86 1010.6
20260905030339 76 285 0.0 0.0 0.00 0.58 0.08 87 1010.6
20260905025809 76 285 0.0 0.0 0.00 0.58 0.08 86 1010.7
20260905025309 76 285 0.0 0.0 0.00 0.58 0.08 86 1010.5
20260905024742 76 285 0.0 0.0 0.00 0.58 0.08 86 1010.5
20260905024442 76 284 0.0 0.0 0.00 0.58 0.08 86 1010.5
20260905023709 77 285 0.0 0.0 0.00 0.58 0.08 86 1010.5
20260905023207 77 285 0.0 0.0 0.00 0.58 0.08 86 1010.5
20260905022706 77 285 0.0 0.0 0.00 0.58 0.08 86 1010.4
20260905022137 77 285 0.0 0.0 0.00 0.58 0.08 86 1010.4
20260905021635 77 285 0.0 0.0 0.00 0.58 0.08 86 1010.6
20260905021118 77 285 0.0 0.0 0.00 0.58 0.08 86 1010.6
20260905020841 76 285 0.0 0.0 0.00 0.58 0.08 87 1010.5
20260905020106 76 284 0.0 0.0 0.00 0.58 0.08 86 1010.4
20260905020049 77 285 0.0 0.0 0.00 0.58 0.08 87 1010.4
20260905015035 77 285 0.0 0.0 0.00 0.58 0.08 87 1010.4
20260905014532 77 284 0.0 0.0 0.00 0.58 0.08 87 1010.3
20260905014256 77 285 0.0 0.0 0.00 0.58 0.08 86 1010.3
20260905013530 77 285 0.0 0.0 0.00 0.58 0.08 86 1010.3
20260905013008 77 285 0.0 0.0 0.00 0.58 0.08 85 1010.4
20260905012504 78 285 0.0 0.0 0.00 0.58 0.08 85 1010.4
20260905012001 78 285 0.0 0.0 0.00 0.58 0.08 84 1010.4
20260905011500 78 285 0.0 0.0 0.00 0.58 0.08 84 1010.5
20260905011222 77 285 0.0 0.0 0.00 0.58 0.08 85 1010.5
20260905010431 77 285 0.0 0.0 0.00 0.58 0.08 86 1010.5
20260905005908 77 285 0.0 0.0 0.00 0.58 0.08 86 1010.5
20260905005407 77 285 0.0 0.0 0.00 0.58 0.08 85 1010.5
20260905004844 77 285 0.0 0.0 0.00 0.58 0.08 85 1010.5
20260905004557 77 285 0.0 0.0 0.00 0.58 0.08 85 1010.5
20260905003832 78 285 0.0 0.0 0.00 0.58 0.08 84 1010.5
20260905003320 78 285 0.0 1.0 0.00 0.58 0.08 83 1010.6
20260905002818 78 285 0.0 1.0 0.00 0.58 0.08 82 1010.5
20260905002320 78 284 0.0 0.0 0.00 0.58 0.08 81 1010.5
20260905001823 78 285 0.0 0.0 0.00 0.58 0.08 81 1010.1
20260905001321 78 285 0.0 0.0 0.00 0.58 0.08 82 1010.1
20260905000822 78 285 0.0 1.0 0.00 0.58 0.08 82 1010.1
20260905000805 79 285 0.0 1.0 0.00 0.58 0.08 82 1010.0
20260904235819 79 285 0.0 1.0 0.00 0.58 0.08 81 1010.1
20260904235259 79 285 0.0 1.0 0.00 0.58 0.08 81 1010.3
20260904234757 79 284 0.0 0.0 0.00 0.58 0.08 80 1010.1
20260904234258 79 284 0.0 0.0 0.00 0.58 0.08 79 1010.0
20260904233736 80 285 0.0 0.0 0.00 0.58 0.08 78 1010.1
20260904233238 80 285 0.0 0.0 0.00 0.58 0.08 77 1010.1
20260904232721 81 285 0.0 0.0 0.00 0.58 0.08 76 1010.0
20260904232152 81 285 0.0 0.0 0.00 0.58 0.08 74 1010.1
20260904231856 82 285 0.0 1.0 0.00 0.58 0.08 74 1010.3
20260904231101 82 285 0.0 1.0 0.00 0.58 0.08 73 1010.1
20260904230558 82 285 0.0 1.0 0.00 0.58 0.08 71 1010.3
20260904230106 82 285 0.0 1.0 0.00 0.58 0.08 71 1010.4
20260904225553 83 283 0.0 1.0 0.00 0.58 0.08 70 1010.5
20260904225049 83 280 0.0 1.0 0.00 0.58 0.08 70 1010.5
20260904224551 83 280 0.0 0.0 0.00 0.58 0.08 70 1010.6
20260904224024 83 315 0.0 0.0 0.00 0.58 0.08 71 1010.6
20260904223520 83 315 0.0 0.0 0.00 0.58 0.08 72 1010.6
20260904223018 83 315 0.0 0.0 0.00 0.58 0.08 71 1010.5
20260904222452 83 315 0.0 0.0 0.00 0.58 0.08 70 1010.4
20260904221924 84 289 0.0 0.0 0.00 0.58 0.08 69 1010.4
20260904221628 84 304 0.0 0.0 0.00 0.58 0.08 66 1010.4
20260904221321 84 299 0.0 1.0 0.00 0.58 0.08 68 1010.4
20260904220529 84 295 0.0 2.0 0.00 0.58 0.08 67 1010.4
20260904220221 84 331 0.0 2.0 0.00 0.58 0.08 67 1010.6
20260904215214 84 315 0.0 4.0 0.00 0.58 0.08 67 1010.7
20260904214647 84 295 0.0 4.0 0.00 0.58 0.08 67 1010.7
20260904214120 84 302 0.0 2.0 0.00 0.58 0.08 68 1010.7
20260904213622 84 290 0.0 2.0 0.00 0.58 0.08 67 1010.8
20260904213051 84 290 0.0 3.0 0.00 0.58 0.08 67 1011.0
20260904212523 84 295 0.0 3.0 0.00 0.58 0.08 66 1011.1
20260904212023 84 300 1.0 3.0 0.00 0.58 0.08 66 1011.0
20260904211509 84 283 1.0 5.0 0.00 0.58 0.08 66 1011.0
20260904210945 85 274 1.0 5.0 0.00 0.58 0.08 66 1011.0
20260904210711 85 296 1.0 5.0 0.00 0.58 0.08 64 1010.9
20260904210147 85 301 1.0 5.0 0.00 0.58 0.08 64 1010.8
20260904205351 85 6 0.0 4.0 0.00 0.58 0.08 64 1010.7
20260904205110 85 311 0.0 2.0 0.00 0.58 0.08 67 1010.6
20260904204553 85 330 0.0 5.0 0.00 0.58 0.08 64 1010.6
20260904204025 85 302 1.0 5.0 0.00 0.58 0.08 64 1010.7
20260904203304 85 260 0.0 4.0 0.00 0.58 0.08 64 1010.5
20260904202748 86 345 0.0 4.0 0.00 0.58 0.08 65 1010.6
20260904202509 86 316 0.0 4.0 0.00 0.58 0.08 63 1010.9
20260904201718 86 308 1.0 6.0 0.00 0.58 0.08 65 1010.9
20260904201216 85 306 1.0 6.0 0.00 0.58 0.08 63 1010.9
20260904200948 86 316 1.0 6.0 0.00 0.58 0.08 64 1010.9
20260904200202 85 300 1.0 4.0 0.00 0.58 0.08 62 1011.0
20260904195704 85 279 2.0 6.0 0.00 0.58 0.08 61 1011.0
20260904195135 85 307 1.0 10.0 0.00 0.58 0.08 61 1010.9
20260904194633 85 272 1.0 4.0 0.00 0.58 0.08 62 1011.0
20260904194130 85 295 1.0 5.0 0.00 0.58 0.08 62 1011.1
20260904193629 85 319 1.0 7.0 0.00 0.58 0.08 62 1011.1
20260904193100 85 281 1.0 7.0 0.00 0.58 0.08 62 1011.3
20260904192822 86 313 2.0 11.0 0.00 0.58 0.08 61 1011.4
20260904192516 86 307 1.0 11.0 0.00 0.58 0.08 61 1011.5
20260904191748 87 329 0.0 4.0 0.00 0.58 0.08 62 1011.5
20260904191002 87 259 0.0 3.0 0.00 0.58 0.08 62 1011.6
20260904190433 87 6 0.0 5.0 0.00 0.58 0.08 64 1011.6
20260904185929 87 304 1.0 6.0 0.00 0.58 0.08 62 1011.7
20260904185408 86 337 1.0 7.0 0.00 0.58 0.08 63 1011.7
20260904184837 87 56 1.0 7.0 0.00 0.58 0.08 62 1011.6
20260904184335 87 356 2.0 6.0 0.00 0.58 0.08 62 1011.9
20260904183811 87 301 1.0 6.0 0.00 0.58 0.08 62 1012.0
20260904183242 86 320 1.0 3.0 0.00 0.58 0.08 63 1012.1
20260904182741 86 309 1.0 4.0 0.00 0.58 0.08 64 1012.1
20260904182211 87 28 1.0 4.0 0.00 0.58 0.08 62 1012.1
20260904181709 87 256 1.0 5.0 0.00 0.58 0.08 62 1012.2
20260904181142 87 310 1.0 5.0 0.00 0.58 0.08 63 1012.1
20260904180643 87 335 1.0 4.0 0.00 0.58 0.08 61 1012.1
20260904180130 87 232 1.0 4.0 0.00 0.58 0.08 61 1011.9
20260904175631 87 281 1.0 3.0 0.00 0.58 0.08 59 1011.9
20260904175106 87 335 1.0 4.0 0.00 0.58 0.08 62 1011.9
20260904174539 87 333 1.0 4.0 0.00 0.58 0.08 61 1011.9
20260904174039 87 280 1.0 4.0 0.00 0.58 0.08 61 1011.9
20260904173510 87 290 1.0 3.0 0.00 0.58 0.08 60 1012.0
20260904173234 87 295 1.0 11.0 0.00 0.58 0.08 63 1012.0
20260904172507 87 235 1.0 11.0 0.00 0.58 0.08 59 1012.2
20260904172003 87 306 1.0 7.0 0.00 0.58 0.08 61 1012.0
20260904171507 88 1 1.0 5.0 0.00 0.58 0.08 62 1012.0
20260904170953 87 297 2.0 5.0 0.00 0.58 0.08 62 1012.0
20260904170438 87 30 2.0 6.0 0.00 0.58 0.08 66 1012.0
20260904170134 87 300 1.0 6.0 0.00 0.58 0.08 61 1012.0
20260904165403 87 285 1.0 6.0 0.00 0.58 0.08 62 1012.1
20260904165126 87 13 1.0 6.0 0.00 0.58 0.08 63 1012.0
20260904164345 87 239 1.0 5.0 0.00 0.58 0.08 64 1012.0
20260904163843 86 329 1.0 9.0 0.00 0.58 0.08 63 1012.1
20260904163345 86 254 1.0 9.0 0.00 0.58 0.08 63 1012.2
20260904162829 86 305 0.0 6.0 0.00 0.58 0.08 64 1012.3
20260904162330 86 307 1.0 7.0 0.00 0.58 0.08 65 1012.3
20260904161816 86 287 1.0 7.0 0.00 0.58 0.08 61 1012.2
20260904161536 86 319 1.0 6.0 0.00 0.58 0.08 63 1012.4
20260904160814 86 297 1.0 6.0 0.00 0.58 0.08 64 1012.4
20260904160316 85 270 2.0 8.0 0.00 0.58 0.08 64 1012.4
20260904155752 85 308 1.0 8.0 0.00 0.58 0.08 63 1012.4
20260904155448 86 285 1.0 6.0 0.00 0.58 0.08 64 1012.5
20260904154704 85 317 1.0 7.0 0.00 0.58 0.08 65 1012.4
20260904154141 86 303 1.0 7.0 0.00 0.58 0.08 65 1012.4
20260904154129 85 289 1.0 6.0 0.00 0.58 0.08 66 1012.5
20260904153120 86 102 1.0 6.0 0.00 0.58 0.08 67 1012.4
20260904152559 85 27 1.0 10.0 0.00 0.58 0.08 67 1012.5
20260904152058 85 260 1.0 10.0 0.00 0.58 0.08 67 1012.4
20260904151533 85 310 1.0 8.0 0.00 0.58 0.08 67 1012.4
20260904151046 84 322 2.0 7.0 0.00 0.58 0.08 69 1012.4
20260904150532 84 332 2.0 8.0 0.00 0.58 0.08 66 1012.4
20260904150004 84 18 2.0 8.0 0.00 0.58 0.08 67 1012.5
20260904145441 84 249 1.0 4.0 0.00 0.58 0.08 69 1012.5
20260904144938 84 328 1.0 5.0 0.00 0.58 0.08 69 1012.5
20260904144437 83 316 1.0 7.0 0.00 0.58 0.08 69 1012.5
20260904143911 83 237 1.0 7.0 0.00 0.58 0.08 69 1012.4
20260904143345 83 333 2.0 9.0 0.00 0.58 0.08 70 1012.5
20260904143045 82 267 2.0 9.0 0.00 0.58 0.08 69 1012.4
20260904142252 82 285 1.0 10.0 0.00 0.58 0.08 71 1012.4
20260904141740 82 11 2.0 7.0 0.00 0.58 0.08 70 1012.3
20260904141224 82 292 2.0 8.0 0.00 0.58 0.08 72 1012.4
20260904140719 82 280 1.0 8.0 0.00 0.58 0.08 71 1012.3
20260904140152 81 237 1.0 6.0 0.00 0.58 0.08 71 1012.2
20260904135653 81 230 1.0 6.0 0.00 0.58 0.08 72 1012.1
20260904135348 81 297 1.0 7.0 0.00 0.58 0.08 72 1012.2
20260904134819 81 303 1.0 8.0 0.00 0.58 0.08 73 1012.2
20260904134032 81 316 1.0 8.0 0.00 0.58 0.08 74 1012.2
20260904133526 80 273 1.0 7.0 0.00 0.58 0.08 75 1012.3
20260904133024 80 287 1.0 7.0 0.00 0.58 0.08 76 1012.4
20260904132521 80 320 1.0 7.0 0.00 0.58 0.08 76 1012.2
20260904132018 79 257 2.0 8.0 0.00 0.58 0.08 77 1012.1